Weather History for Rochester, NH

Change the Weather History Date:

Tuesday, January 22, 2013

  Actual Average (KSFM) Record (KSFM)
Temperature  
Mean Temperature 16 °F -  
Max Temperature 23 °F 26 °F 48 °F (1997)
Min Temperature 7 °F 7 °F -20 °F (2005)
Degree Days  
Heating Degree Days 50    
Moisture  
Dew Point 4 °F    
Average Humidity 59    
Maximum Humidity 81    
Minimum Humidity 30    
Precipitation  
Precipitation 0.00 in - - ()
Sea Level Pressure  
Sea Level Pressure 29.84 in    
Wind  
Wind Speed 7 mph (NW)    
Max Wind Speed 16 mph    
Max Gust Speed 26 mph    
Visibility 10 miles    
Events      
Averages and records for this station are not official NWS values.
T = Trace of Precipitation, MM = Missing Value Source: NWS Daily Summary

Daily Weather History Graph

Daily Weather History Graph

Search for Another Location

Airport:

Trip Planner

Search our weather history database for the weather conditions in past years. The results will help you decide how hot, cold, wet, or windy it might be!

Date:

Astronomy

Jan. 22, 2013 Rise Set
Actual Time 7:08 AM EST 4:42 PM EST
Civil Twilight 6:37 AM EST 5:13 PM EST
Nautical Twilight 6:02 AM EST 5:48 PM EST
Astronomical Twilight 5:28 AM EST 6:22 PM EST
Moon 1:02 PM EST (1/22) 3:28 AM EST (1/22)
Length of Visible Light 10h 36m
Length of Day
9h 34m
Waxing Gibbous, 82% of the Moon is Illuminated
Jan 22
Waxing Gibbous
Jan 26
Full
Feb 3
Last Quarter
Feb 10
New
Feb 17
First Quarter

Hourly Weather History & Observations

Time (EST) Temp. Windchill Dew Point Humidity Pressure Visibility Wind Dir Wind Speed Gust Speed Precip Events Conditions
12:51 AM 19.0 °F 13.9 °F 14.0 °F 81% 29.77 in 10.0 mi North 3.5 mph - N/A   Overcast
1:51 AM 19.0 °F 11.1 °F 12.9 °F 77% 29.75 in 10.0 mi NNW 5.8 mph - N/A   Overcast
2:51 AM 19.0 °F 11.1 °F 12.9 °F 77% 29.75 in 10.0 mi North 5.8 mph - N/A   Overcast
3:51 AM 19.0 °F 10.0 °F 12.0 °F 74% 29.74 in 10.0 mi NNW 6.9 mph - N/A   Overcast
5:51 AM 15.1 °F 2.5 °F 8.1 °F 74% 29.74 in 10.0 mi NNW 10.4 mph - N/A   Clear
6:51 AM 12.9 °F 3.8 °F 5.0 °F 71% 29.76 in 10.0 mi North 5.8 mph - N/A   Clear
7:37 AM 14.0 °F 2.9 °F 6.8 °F 73% 29.77 in 10.0 mi NNW 8.1 mph - N/A   Overcast
7:51 AM 14.0 °F 2.0 °F 6.1 °F 71% 29.78 in 10.0 mi NNW 9.2 mph - N/A   Overcast
8:37 AM 15.8 °F 5.1 °F 6.8 °F 68% 29.78 in 10.0 mi NNW 8.1 mph - N/A   Mostly Cloudy
8:51 AM 16.0 °F 7.4 °F 7.0 °F 68% 29.80 in 10.0 mi NW 5.8 mph - N/A   Mostly Cloudy
9:51 AM 18.0 °F 11.1 °F 9.0 °F 68% 29.80 in 10.0 mi NNW 4.6 mph - N/A   Clear
10:51 AM 21.9 °F 9.2 °F 3.9 °F 46% 29.80 in 10.0 mi WNW 13.8 mph 20.7 mph N/A   Clear
11:51 AM 23.0 °F 12.4 °F 1.0 °F 39% 29.79 in 10.0 mi West 10.4 mph 18.4 mph N/A   Scattered Clouds
12:51 PM 23.0 °F 13.9 °F -2.0 °F 34% 29.78 in 10.0 mi West 8.1 mph 25.3 mph N/A   Scattered Clouds
1:51 PM 23.0 °F 11.7 °F -4.0 °F 31% 29.80 in 10.0 mi WNW 11.5 mph 24.2 mph N/A   Mostly Cloudy
2:51 PM 21.0 °F 8.6 °F -2.9 °F 35% 29.82 in 10.0 mi NW 12.7 mph 26.5 mph N/A   Overcast
3:51 PM 19.9 °F 6.2 °F -7.1 °F 30% 29.86 in 10.0 mi NW 15.0 mph 24.2 mph N/A   Partly Cloudy
4:51 PM 18.0 °F 3.1 °F -0.9 °F 44% 29.88 in 10.0 mi NW 16.1 mph 21.9 mph N/A   Mostly Cloudy
5:51 PM 16.0 °F 4.4 °F 3.0 °F 57% 29.92 in 10.0 mi WNW 9.2 mph - N/A   Partly Cloudy
6:51 PM 16.0 °F 8.8 °F 3.9 °F 59% 29.96 in 10.0 mi Variable 4.6 mph - N/A   Mostly Cloudy
7:51 PM 12.9 °F -0.9 °F -0.0 °F 56% 29.98 in 10.0 mi WNW 11.5 mph - 0.00 in   Scattered Clouds
8:51 PM 12.0 °F 4.1 °F -0.9 °F 56% 29.99 in 10.0 mi Variable 4.6 mph - N/A   Clear
9:51 PM 10.0 °F - -0.9 °F 61% 30.01 in 10.0 mi Calm Calm - N/A   Clear
10:51 PM 8.1 °F - -2.0 °F 64% 30.02 in 10.0 mi Calm Calm - N/A   Clear
11:51 PM 7.0 °F - -4.0 °F 61% 30.02 in 10.0 mi Calm Calm - N/A   Clear